Location: Lone Pine Community Mobile Home Park
(42.7367°N, 73.8567°W)
Time: 06:06:28
(UTC+00:00)

CORIOLIS - Pass Details

Date: 29 October 2020
Orbit: 819 x 838 km, 98.7° (Epoch: 27 November)

Event Time Altitude Azimuth Distance (km) Brightness Sun altitude
Rises 22:31:19 0° 167° (SSE) 3,334 7.3 -7.9°
Reaches altitude 10° 22:33:38 10° 168° (SSE) 2,406 6.6 -8.4°
Maximum altitude 22:38:58 81° 255° (WSW) 835 4.3 -9.3°
Drops below altitude 10° 22:44:22 10° 344° (NNW) 2,430 6.7 -10.3°
Sets 22:46:44 0° 346° (NNW) 3,369 7.4 -10.7°
